Date,TemperatureHighF,TemperatureAvgF,TemperatureLowF,DewpointHighF,DewpointAvgF,DewpointLowF,HumidityHigh,HumidityAvg,HumidityLow,PressureMaxIn,PressureMinIn,WindSpeedMaxMPH,WindSpeedAvgMPH,GustSpeedMaxMPH,PrecipitationSumIn
2013-1-1,37,30,23,27,23,19,88,76,61,30.39,30.14,19,5,19,0.00
2013-1-2,46,31,19,27,22,16,95,72,43,30.43,30.29,13,2,13,0.01
2013-1-3,47,32,22,27,22,19,95,70,37,30.58,30.43,11,1,11,0.00
2013-1-4,45,36,25,32,27,21,89,71,52,30.55,30.34,16,2,16,0.00
2013-1-5,54,42,32,32,27,18,82,59,28,30.40,30.19,18,4,18,0.00
2013-1-6,55,38,25,29,24,20,83,61,31,30.50,30.35,8,1,8,0.00
2013-1-7,52,37,23,31,25,18,85,63,38,30.36,30.10,14,1,14,0.00
2013-1-8,53,44,32,42,36,26,85,73,61,30.18,30.03,8,1,11,0.00
2013-1-9,49,44,42,47,40,34,92,84,73,30.30,30.04,20,7,28,0.56
2013-1-10,55,49,46,49,46,43,93,89,76,30.04,29.83,15,3,15,0.15
2013-1-11,70,55,43,51,45,35,88,69,47,29.86,29.66,23,5,23,0.00
2013-1-12,52,39,27,35,25,17,76,58,43,30.15,29.81,27,8,27,0.00
2013-1-13,35,27,19,20,15,12,83,62,41,30.42,30.14,22,5,22,0.00
2013-1-14,38,27,16,19,14,11,84,60,34,30.48,30.33,16,3,16,0.00
2013-1-15,39,29,20,20,17,13,80,61,35,30.38,30.28,13,3,17,0.00
2013-1-16,53,34,18,31,22,14,85,66,30,30.35,30.21,17,2,17,0.00
2013-1-17,57,41,30,34,30,25,83,65,39,30.59,30.33,13,2,13,0.00
2013-1-18,62,44,26,35,30,22,89,62,35,30.53,30.19,19,4,19,0.00
2013-1-19,64,46,33,38,33,27,83,62,35,30.25,30.10,12,1,12,0.00
2013-1-20,65,43,26,37,31,22,92,65,31,30.26,30.09,12,1,12,0.00
2013-1-21,46,35,24,34,18,12,78,52,32,30.45,30.23,25,5,25,0.00
2013-1-22,64,41,19,42,29,16,87,66,37,30.34,30.15,17,2,17,0.00
2013-1-23,68,47,28,49,38,26,91,74,46,30.26,30.08,13,1,13,0.00
2013-1-24,43,38,34,36,32,29,92,81,69,30.28,30.12,18,3,18,0.00
2013-1-25,52,39,28,34,29,24,86,70,47,30.32,30.14,13,2,13,0.00
2013-1-26,58,42,25,43,33,22,91,73,48,30.27,30.02,15,1,15,0.00
2013-1-27,78,63,49,56,52,43,92,70,42,30.02,29.74,24,6,24,0.00
2013-1-28,80,66,54,61,53,47,87,65,36,29.87,29.65,26,4,26,0.00
2013-1-29,68,58,40,60,41,25,86,56,28,29.74,29.48,44,8,44,0.00
2013-1-30,51,40,28,31,22,13,76,51,23,30.14,29.74,25,8,25,0.00
2013-1-31,66,42,24,31,22,15,77,51,18,30.39,30.08,27,3,27,0.00
2013-2-1,53,36,19,28,21,13,81,58,35,30.44,30.13,16,2,17,0.00
2013-2-2,65,44,28,36,28,23,84,58,25,30.37,30.16,17,2,17,0.00
2013-2-3,68,49,26,34,26,18,84,48,15,30.37,29.89,23,3,23,0.00
2013-2-4,69,57,35,49,37,26,75,50,20,29.95,29.77,21,4,21,0.00
2013-2-5,69,48,27,51,34,23,89,64,24,30.07,29.93,18,2,18,0.00
2013-2-6,74,60,52,55,52,49,93,77,46,30.02,29.73,18,3,18,0.00
2013-2-7,63,54,38,55,43,28,89,69,37,30.23,29.70,30,8,30,0.00
2013-2-8,58,43,25,32,24,16,92,54,20,30.35,30.13,15,2,15,0.00
2013-2-9,57,50,42,53,42,25,89,74,48,30.13,29.63,24,6,26,0.04
2013-2-10,64,50,36,43,26,19,64,40,19,30.05,29.73,20,5,20,0.00
2013-2-11,56,43,31,31,26,22,77,54,30,30.24,30.05,16,2,16,0.00
2013-2-12,45,38,33,37,34,30,96,86,60,30.16,29.94,25,6,25,0.87
2013-2-13,58,41,28,40,32,25,91,73,37,30.19,30.00,11,1,11,0.01
2013-2-14,64,46,28,40,32,25,90,65,28,30.25,30.00,28,5,28,0.00
2013-2-15,46,39,32,36,27,22,78,63,43,30.48,30.25,23,5,28,0.00
2013-2-16,58,41,27,35,29,22,91,66,34,30.47,30.10,14,2,20,0.00
2013-2-17,74,52,28,33,28,21,86,46,14,30.10,29.71,23,6,23,0.00
2013-2-18,61,52,34,45,33,24,76,50,27,30.15,29.61,31,9,32,0.00
2013-2-19,58,43,26,32,25,22,85,54,26,30.35,30.13,21,4,21,0.00
2013-2-20,50,40,35,39,36,29,91,86,44,30.14,29.75,36,11,36,0.37
2013-2-21,51,37,28,41,32,21,92,83,65,30.10,29.71,30,7,30,0.29
2013-2-22,43,32,22,27,22,17,80,68,50,30.25,30.07,14,3,15,0.00
2013-2-23,50,36,24,35,28,21,90,73,52,30.17,29.87,14,2,15,0.00
2013-2-24,68,49,34,46,38,29,89,67,44,29.87,29.57,27,6,27,0.40
2013-2-25,44,38,33,41,35,30,92,90,82,29.87,29.49,34,13,35,0.85
2013-2-26,50,39,30,35,30,25,85,71,53,29.98,29.85,23,6,23,0.00
2013-2-27,51,40,29,34,28,24,85,65,39,30.32,29.97,30,8,30,0.00
2013-2-28,56,40,26,31,26,21,88,62,26,30.39,30.25,22,4,22,0.00
2013-3-1,55,40,28,35,29,23,92,68,41,30.43,30.26,28,4,28,0.00
2013-3-2,64,43,25,40,31,22,89,67,34,30.50,30.19,14,1,14,0.00
2013-3-3,80,57,30,39,31,26,89,46,15,30.19,29.57,27,5,27,0.00
2013-3-4,79,63,46,44,36,26,67,38,20,30.10,29.53,38,9,38,0.00
2013-3-5,55,43,29,34,21,12,76,44,19,30.46,30.10,30,7,36,0.00
2013-3-6,56,40,23,28,23,19,87,55,28,30.51,30.18,16,3,16,0.00
2013-3-7,73,56,40,43,29,22,55,39,23,30.18,29.97,22,5,22,0.00
2013-3-8,64,59,54,57,51,43,82,75,56,30.02,29.80,30,8,30,0.00
2013-3-9,74,64,58,60,46,26,88,57,20,29.80,29.58,38,6,38,0.05
2013-3-10,58,45,36,38,27,20,65,50,31,30.15,29.73,33,13,36,0.00
2013-3-11,67,45,24,33,25,17,78,49,24,30.17,29.94,12,3,12,0.00
2013-3-12,62,49,38,39,31,25,81,52,32,30.36,29.94,25,7,25,0.00
2013-3-13,69,49,30,40,34,27,92,62,30,30.48,30.27,17,1,17,0.00
2013-3-14,80,60,37,45,40,33,84,50,25,30.28,30.05,15,3,15,0.00
2013-3-15,87,69,49,45,41,37,67,40,17,30.06,29.70,19,5,19,0.00
2013-3-16,79,65,52,53,45,39,65,48,31,29.76,29.62,25,6,25,0.00
2013-3-17,61,50,39,42,37,32,75,62,47,29.89,29.63,24,6,25,0.00
2013-3-18,63,53,42,41,35,27,86,55,25,30.02,29.60,23,6,23,0.00
2013-3-19,62,51,36,44,36,28,79,57,46,30.21,29.97,19,3,19,0.00
2013-3-20,64,50,34,39,32,25,86,55,26,30.38,29.95,15,1,15,0.00
2013-3-21,82,63,50,53,41,28,75,47,27,29.95,29.36,26,6,26,0.00
2013-3-22,57,45,40,48,37,35,87,74,63,29.90,29.47,28,8,28,0.00
2013-3-23,53,46,38,44,39,30,87,78,72,30.03,29.66,27,5,27,0.00
2013-3-24,49,38,30,30,21,14,75,53,26,30.29,30.02,30,10,30,0.00
2013-3-25,51,36,19,22,16,14,80,49,24,30.50,30.29,23,4,23,0.00
2013-3-26,61,40,18,24,19,13,84,48,19,30.54,30.20,20,3,20,0.00
2013-3-27,76,58,43,44,33,24,57,41,26,30.21,29.93,28,7,28,0.00
2013-3-28,78,64,52,53,48,43,74,59,38,30.07,29.92,25,4,25,0.00
2013-3-29,80,65,54,60,55,50,89,71,45,30.06,29.88,18,3,20,0.00
2013-3-30,82,67,51,60,56,48,91,69,43,29.95,29.79,15,2,15,0.00
2013-3-31,71,62,50,59,48,41,88,62,36,30.04,29.79,40,5,40,0.00
2013-4-1,80,59,42,55,46,38,86,65,38,30.07,29.88,24,4,24,0.08
2013-4-2,46,41,39,40,37,34,91,86,77,30.15,30.02,21,9,21,0.07
2013-4-3,41,39,38,38,37,35,92,91,88,30.27,30.13,18,6,18,0.23
2013-4-4,51,42,37,40,36,34,92,82,67,30.30,30.18,13,4,13,0.01
2013-4-5,70,51,31,48,40,28,92,71,43,30.27,29.88,22,3,22,0.00
2013-4-6,80,65,53,53,49,46,78,57,34,29.88,29.75,22,3,22,0.00
2013-4-7,86,68,54,63,57,49,91,70,41,29.79,29.49,27,5,27,0.00
2013-4-8,88,74,64,64,62,59,83,67,41,29.56,29.40,29,9,29,0.00
2013-4-9,84,62,34,64,51,28,92,70,37,29.92,29.46,36,12,36,0.18
2013-4-10,48,36,29,32,29,24,87,75,47,30.15,29.83,38,5,38,0.37
2013-4-11,62,45,29,40,30,22,87,61,33,30.06,29.78,15,3,15,0.00
2013-4-12,67,53,40,47,41,36,86,67,44,30.04,29.83,17,3,17,0.00
2013-4-13,76,62,52,50,45,40,74,55,30,29.92,29.63,22,6,24,0.00
2013-4-14,92,72,56,55,48,32,77,49,12,29.65,29.36,22,7,23,0.00
2013-4-15,79,65,52,55,48,40,79,54,36,29.69,29.46,21,5,21,0.00
2013-4-16,62,54,47,51,46,41,87,74,62,29.93,29.67,17,7,21,0.00
2013-4-17,82,60,48,70,56,44,91,86,66,29.83,29.42,30,5,30,0.62
2013-4-18,54,45,38,44,32,27,90,62,37,30.22,29.69,37,13,37,0.02
2013-4-19,68,50,31,42,27,19,71,46,17,30.33,30.06,18,4,18,0.00
2013-4-20,72,58,46,36,32,29,57,39,24,30.08,29.85,33,9,33,0.00
2013-4-21,73,61,48,51,44,33,77,57,41,30.09,29.94,22,5,22,0.00
2013-4-22,86,77,53,60,56,47,82,51,35,29.95,29.60,28,8,28,0.00
2013-4-23,72,42,36,56,34,28,86,73,56,30.35,29.63,34,12,34,0.00
2013-4-24,61,45,28,35,30,24,85,57,31,30.42,30.24,19,3,19,0.00
2013-4-25,72,54,31,42,34,27,88,52,21,30.37,30.03,21,2,21,0.00
2013-4-26,86,69,60,60,51,36,79,54,19,30.10,29.78,27,8,27,0.00
2013-4-27,80,64,54,54,50,46,88,65,32,30.14,29.97,22,5,22,0.00
2013-4-28,90,69,47,53,47,40,90,53,19,30.01,29.72,21,2,21,0.00
2013-4-29,92,76,58,59,47,35,71,42,15,29.79,29.60,26,6,26,0.00
2013-4-30,91,77,63,62,58,50,78,55,26,29.67,29.53,20,8,26,0.00
2013-5-1,88,69,45,64,56,37,82,64,40,30.15,29.60,34,9,34,0.00
2013-5-2,54,45,39,37,34,28,85,67,39,30.49,30.14,35,14,35,0.04
2013-5-3,72,52,32,30,26,18,79,44,14,30.47,29.99,31,4,31,0.00
2013-5-4,74,55,33,39,28,12,79,43,10,30.08,29.93,25,5,26,0.00
2013-5-5,73,55,38,48,42,33,84,63,37,30.22,30.04,15,2,15,0.00
2013-5-6,78,63,44,51,47,40,89,59,34,30.14,29.96,13,1,13,0.00
2013-5-7,87,71,54,51,48,45,78,47,24,30.03,29.79,30,3,30,0.00
2013-5-8,87,75,59,64,57,48,73,55,39,29.84,29.64,30,6,30,0.00
2013-5-9,85,69,59,64,60,53,91,73,40,29.90,29.73,21,3,21,0.07
2013-5-10,75,65,57,58,55,51,89,71,48,30.10,29.85,27,5,27,0.24
2013-5-11,82,66,48,57,50,42,94,62,24,30.23,30.09,22,3,22,0.01
2013-5-12,84,66,45,48,44,37,87,50,25,30.28,30.01,19,3,19,0.00
2013-5-13,94,77,57,49,44,35,68,35,14,30.12,29.96,29,5,29,0.00
2013-5-14,92,79,63,58,50,40,60,38,23,30.02,29.78,25,6,25,0.00
2013-5-15,87,73,66,65,60,47,86,64,34,29.85,29.63,22,4,25,0.06
2013-5-16,84,70,61,64,60,58,89,74,46,29.78,29.67,17,4,17,0.00
2013-5-17,93,77,66,73,68,61,93,76,50,29.78,29.64,24,5,24,0.00
2013-5-18,101,83,71,71,67,58,89,62,26,29.72,29.46,27,5,27,0.44
2013-5-19,99,86,75,69,51,26,73,39,8,29.59,29.45,35,8,35,0.00
2013-5-20,98,81,65,64,49,32,74,37,10,29.67,29.50,27,4,27,0.00
2013-5-21,78,69,56,63,52,46,84,57,32,29.89,29.64,21,6,28,0.31
2013-5-22,91,74,52,56,49,42,90,50,19,29.90,29.72,21,3,23,0.00
2013-5-23,88,76,64,68,63,51,82,66,41,29.98,29.71,33,8,33,0.00
2013-5-24,93,77,65,71,64,59,87,67,37,30.05,29.90,25,6,25,0.00
2013-5-25,88,76,65,67,63,58,81,66,45,30.08,29.86,21,4,22,0.00
2013-5-26,95,82,70,69,65,60,84,59,32,29.95,29.72,25,8,25,0.00
2013-5-27,96,84,72,68,66,63,76,57,36,29.79,29.54,32,10,32,0.00
2013-5-28,82,78,76,70,67,65,77,67,60,29.68,29.51,26,6,26,0.00
2013-5-29,87,80,73,68,66,64,76,65,47,29.64,29.40,43,9,43,0.02
2013-5-30,100,86,75,71,59,31,76,47,9,29.60,29.47,30,8,30,0.00
2013-5-31,105,89,72,70,63,37,76,47,11,29.63,29.39,29,6,29,0.00
2013-6-1,90,78,67,68,51,41,79,43,19,29.98,29.48,32,7,32,0.00
2013-6-2,87,72,56,54,49,45,80,47,25,30.10,29.88,18,3,18,0.00
2013-6-3,96,80,65,60,55,50,65,45,29,29.95,29.65,21,5,21,0.00
2013-6-4,100,84,69,68,63,56,78,51,34,29.79,29.59,30,8,30,0.00
2013-6-5,91,80,71,67,65,60,78,59,45,29.87,29.64,27,8,27,0.00
2013-6-6,81,72,64,65,61,58,91,69,47,29.94,29.81,24,6,27,1.00
2013-6-7,87,74,59,62,57,52,90,61,36,29.99,29.82,14,1,14,0.00
2013-6-8,91,78,66,60,57,51,80,51,29,29.87,29.62,47,6,47,0.07
2013-6-9,94,77,62,67,62,56,91,63,28,29.92,29.73,26,1,47,0.32
2013-6-10,100,85,69,68,61,51,82,50,20,29.87,29.75,22,5,22,0.00
2013-6-11,98,86,72,68,60,54,63,43,26,29.89,29.74,24,4,24,0.00
2013-6-12,98,87,75,67,65,62,73,50,32,29.91,29.75,23,5,23,0.00
2013-6-13,100,88,74,70,66,62,74,51,30,29.95,29.77,18,2,18,0.00
2013-6-14,94,84,72,68,63,58,76,52,32,29.90,29.81,20,3,22,0.00
2013-6-15,88,79,69,71,66,63,88,65,47,29.99,29.79,23,3,23,0.29
2013-6-16,97,84,70,72,68,65,86,61,38,29.95,29.73,23,3,23,0.00
2013-6-17,94,81,67,70,65,62,88,62,37,29.93,29.73,50,2,50,0.10
2013-6-18,91,80,69,67,65,62,88,63,40,29.97,29.84,0,0,0,0.00
2013-6-19,85,75,70,70,66,61,90,74,46,30.02,29.74,0,0,0,0.25
2013-6-20,97,84,69,72,66,63,84,59,35,29.89,29.76,5,0,5,0.00
2013-6-21,96,87,77,72,67,62,69,53,35,29.90,29.77,8,0,8,0.00
2013-6-22,97,87,77,68,64,60,61,46,33,29.86,29.69,0,0,0,0.00
2013-6-23,99,88,78,66,60,55,62,42,24,29.78,29.68,0,0,0,0.00
2013-6-24,96,86,76,67,63,57,62,46,32,29.85,29.70,0,0,0,0.00
2013-6-25,101,89,78,71,67,60,67,50,35,29.79,29.61,21,3,23,0.00
2013-6-26,104,92,79,72,66,60,63,43,29,29.76,29.66,22,5,22,0.00
2013-6-27,107,92,76,69,64,57,71,44,20,29.94,29.71,38,3,38,0.00
2013-6-28,103,90,76,64,60,55,64,40,22,29.94,29.78,22,5,32,0.00
2013-6-29,101,86,70,65,59,56,70,43,24,29.92,29.74,17,3,17,0.01
2013-6-30,94,82,71,64,56,52,74,43,26,29.93,29.82,18,4,18,0.00
2013-7-1,87,75,60,55,51,46,74,46,28,30.07,29.93,22,4,22,0.00
2013-7-2,91,75,55,52,46,39,77,42,18,30.13,29.96,14,2,14,0.00
2013-7-3,94,76,56,51,47,44,71,40,19,30.04,29.85,14,1,15,0.00
2013-7-4,96,83,68,59,51,48,69,36,20,29.93,29.76,18,3,18,0.00
2013-7-5,100,86,69,60,54,46,65,37,18,29.88,29.70,26,4,26,0.00
2013-7-6,100,87,76,61,56,49,54,36,19,29.83,29.71,23,4,25,0.00
2013-7-7,100,88,75,64,60,56,60,40,26,29.90,29.80,21,2,21,0.00
2013-7-8,102,89,73,69,64,60,71,45,27,29.95,29.82,18,3,18,0.00
2013-7-9,102,91,78,67,64,60,65,43,28,29.97,29.81,19,6,24,0.00
2013-7-10,103,91,77,65,61,59,58,39,25,29.95,29.78,13,2,24,0.00
2013-7-11,107,90,79,67,62,59,57,41,22,29.88,29.74,21,2,21,0.00
2013-7-12,105,92,76,68,64,59,70,43,23,29.86,29.74,19,2,20,0.00
2013-7-13,107,93,77,66,61,53,68,38,18,29.89,29.72,15,2,16,0.00
2013-7-14,89,76,65,64,61,57,90,63,42,30.01,29.77,31,5,31,0.32
2013-7-15,78,69,64,66,62,60,92,80,60,30.06,29.96,15,2,16,0.02
2013-7-16,75,70,68,70,68,65,92,90,83,30.18,30.01,19,2,19,1.82
2013-7-17,86,74,69,73,69,66,92,85,59,30.24,30.12,18,2,18,0.07
2013-7-18,90,79,68,71,68,65,92,72,47,30.16,29.95,16,2,19,0.01
2013-7-19,94,82,68,70,67,64,90,63,38,30.00,29.82,17,2,17,0.00
2013-7-20,97,85,73,70,66,62,84,57,32,29.89,29.73,17,2,17,0.00
2013-7-21,98,86,73,68,67,64,82,54,35,29.82,29.71,15,4,21,0.00
2013-7-22,97,87,76,73,70,67,76,58,40,29.84,29.71,19,4,20,0.00
2013-7-23,99,89,77,73,71,68,76,57,40,29.83,29.68,20,4,20,0.00
2013-7-24,97,86,75,72,69,65,78,58,41,29.91,29.73,29,4,41,0.00
2013-7-25,86,79,71,74,71,66,90,76,64,30.03,29.88,19,2,19,0.38
2013-7-26,88,80,74,74,70,65,90,72,49,30.01,29.83,23,5,23,0.15
2013-7-27,92,80,67,69,65,61,91,65,38,30.02,29.83,15,1,15,0.00
2013-7-28,91,80,66,67,64,57,90,62,35,29.92,29.77,19,3,19,0.00
2013-7-29,97,86,76,75,70,66,77,60,44,29.84,29.72,20,2,21,0.00
2013-7-30,101,88,76,73,70,66,74,56,38,29.93,29.78,12,0,12,0.00
2013-7-31,99,86,75,74,70,55,87,62,25,30.01,29.88,17,2,17,0.00
2013-8-1,97,85,73,73,69,66,85,61,38,30.01,29.83,18,4,18,0.00
2013-8-2,104,91,79,71,66,60,76,48,25,29.86,29.68,26,7,26,0.00
2013-8-3,104,91,78,65,63,58,60,41,23,29.88,29.74,22,7,22,0.00
2013-8-4,103,90,78,67,65,62,65,45,27,29.94,29.79,23,6,23,0.00
2013-8-5,104,91,78,68,64,61,68,44,26,29.88,29.67,21,7,23,0.00
2013-8-6,107,93,76,68,62,57,60,38,21,29.77,29.60,21,7,21,0.00
2013-8-7,100,89,73,70,66,62,83,49,32,29.79,29.64,37,5,37,0.07
2013-8-8,100,82,72,72,68,66,88,67,35,29.83,29.66,30,5,30,0.04
2013-8-9,91,80,68,70,67,64,88,67,44,30.00,29.81,20,5,20,0.00
2013-8-10,90,79,70,68,66,64,87,65,43,30.09,29.95,16,5,19,0.00
2013-8-11,100,83,67,70,67,62,88,62,35,30.05,29.87,25,4,25,0.14
2013-8-12,101,83,73,73,70,65,91,68,34,29.99,29.82,25,5,25,0.03
2013-8-13,90,80,72,73,69,67,87,71,50,29.99,29.86,17,4,17,0.01
2013-8-14,90,79,72,69,67,64,89,68,46,30.05,29.90,15,5,17,0.00
2013-8-15,92,80,71,73,68,63,84,66,47,29.99,29.86,17,4,21,0.00
2013-8-16,91,77,64,68,64,58,89,67,43,30.04,29.90,30,5,30,0.39
2013-8-17,89,77,67,68,64,62,87,66,46,30.07,29.93,19,5,19,0.00
2013-8-18,92,80,67,64,62,58,81,58,35,30.05,29.90,23,5,23,0.00
2013-8-19,95,82,68,63,62,60,81,54,34,29.99,29.85,26,4,26,0.00
2013-8-20,98,84,72,65,62,60,70,50,32,29.94,29.85,20,4,20,0.00
2013-8-21,97,83,67,66,59,56,75,47,27,30.00,29.90,20,4,20,0.00
2013-8-22,99,86,71,68,63,59,75,49,29,30.00,29.83,20,4,20,0.00
2013-8-23,102,88,72,67,64,58,72,48,26,29.94,29.81,18,4,18,0.00
2013-8-24,102,92,81,67,65,60,60,43,27,29.98,29.89,22,4,22,0.00
2013-8-25,100,87,73,70,65,60,76,51,31,30.07,29.96,18,3,18,0.00
2013-8-26,96,84,71,69,64,61,75,53,34,30.10,29.97,19,3,19,0.00
2013-8-27,92,81,67,69,65,59,79,59,44,30.03,29.91,18,4,20,0.00
2013-8-28,97,87,73,69,65,59,82,51,31,30.00,29.89,23,6,23,0.00
2013-8-29,101,89,72,62,60,57,68,40,24,30.00,29.86,21,5,21,0.00
2013-8-30,104,89,71,64,60,56,72,41,23,29.92,29.76,25,5,25,0.00
2013-8-31,106,90,73,63,58,54,62,36,19,29.82,29.68,17,4,17,0.00
2013-9-1,106,90,73,68,62,56,64,41,21,29.84,29.70,19,4,19,0.00
2013-9-2,96,86,71,72,65,57,77,50,33,29.95,29.81,25,6,25,0.00
2013-9-3,97,81,62,62,56,49,76,46,22,30.01,29.87,16,4,16,0.00
2013-9-4,98,82,61,63,55,40,77,44,14,30.04,29.91,24,3,24,0.00
2013-9-5,102,85,70,67,61,52,73,47,24,30.04,29.91,15,3,15,0.00
2013-9-6,102,87,71,66,62,59,68,45,26,30.01,29.85,17,2,17,0.00
2013-9-7,102,88,69,66,62,59,75,44,25,29.93,29.79,18,3,18,0.00
2013-9-8,100,88,69,67,60,53,75,41,25,29.90,29.76,23,4,23,0.00
2013-9-9,95,84,72,65,62,58,72,48,32,29.89,29.77,21,6,21,0.00
2013-9-10,94,83,72,72,65,62,74,57,38,30.00,29.85,29,6,29,0.10
2013-9-11,94,82,71,68,64,60,81,56,34,30.06,29.92,19,4,19,0.00
2013-9-12,96,80,65,65,61,58,82,54,30,30.04,29.88,17,3,17,0.00
2013-9-13,89,80,73,70,67,64,76,64,48,29.95,29.82,25,6,25,0.00
2013-9-14,92,83,72,70,66,65,81,59,41,29.93,29.80,15,6,20,0.00
2013-9-15,95,84,71,66,64,62,73,53,35,29.93,29.81,18,4,18,0.00
2013-9-16,93,80,71,69,66,64,90,65,40,30.00,29.85,26,5,26,0.20
2013-9-17,88,75,70,73,69,66,91,82,53,29.99,29.85,17,3,17,0.14
2013-9-18,93,83,74,70,65,59,77,57,34,29.88,29.72,26,6,26,0.00
2013-9-19,86,76,71,70,65,59,88,71,51,29.87,29.75,20,4,20,0.05
2013-9-20,72,67,59,68,61,53,89,80,62,29.97,29.78,22,7,22,0.19
2013-9-21,84,66,50,56,51,47,91,64,30,30.01,29.83,14,2,14,0.00
2013-9-22,86,68,51,57,51,48,92,60,28,29.86,29.70,18,3,18,0.00
2013-9-23,88,73,58,55,53,51,77,52,30,29.74,29.60,26,6,26,0.00
2013-9-24,90,75,59,54,49,42,75,45,20,29.92,29.74,17,4,17,0.00
2013-9-25,94,75,52,61,53,47,84,51,26,29.82,29.60,23,4,23,0.00
2013-9-26,96,82,70,62,59,53,70,49,28,29.71,29.61,30,9,30,0.00
2013-9-27,91,80,69,70,64,53,74,60,43,29.76,29.61,29,9,29,0.00
2013-9-28,80,69,55,71,56,44,90,65,33,30.06,29.66,26,8,26,0.78
2013-9-29,82,63,48,54,47,38,92,62,22,30.07,29.85,12,2,12,0.01
2013-9-30,89,71,56,60,53,49,79,56,34,29.87,29.65,21,5,21,0.00
2013-10-1,90,74,60,66,59,53,83,61,39,29.79,29.69,22,4,22,0.00
2013-10-2,90,78,67,70,65,60,84,66,49,29.81,29.67,26,6,26,0.00
2013-10-3,93,80,70,68,66,63,87,64,40,29.73,29.57,30,10,30,0.00
2013-10-4,91,81,66,69,66,61,86,61,46,29.75,29.58,33,11,33,0.45
2013-10-5,70,60,49,61,40,33,86,50,27,30.08,29.75,29,9,31,0.00
2013-10-6,79,59,43,43,37,30,82,49,18,30.15,29.99,22,4,22,0.00
2013-10-7,85,63,46,47,43,39,76,52,22,30.12,29.98,10,2,10,0.00
2013-10-8,86,68,50,47,43,39,69,42,22,30.00,29.82,19,4,19,0.00
2013-10-9,84,70,55,52,48,45,71,49,29,29.92,29.80,27,5,27,0.00
2013-10-10,86,73,61,63,58,51,77,60,42,29.88,29.66,33,8,33,0.00
2013-10-11,90,75,59,61,48,32,82,46,15,29.76,29.65,24,7,24,0.00
2013-10-12,79,65,53,51,47,39,71,53,35,30.06,29.74,19,5,19,0.00
2013-10-13,74,66,57,65,58,48,85,74,68,30.18,30.01,26,5,26,0.00
2013-10-14,79,72,67,68,66,64,90,81,67,30.03,29.73,17,5,18,0.00
2013-10-15,72,60,53,67,46,39,88,62,46,30.08,29.77,28,8,28,0.00
2013-10-16,58,52,40,43,38,34,80,61,47,30.16,30.04,20,5,20,0.00
2013-10-17,76,54,34,48,41,30,90,64,37,30.08,29.89,17,3,17,0.00
2013-10-18,56,48,38,54,42,34,90,81,67,30.20,29.85,29,7,29,0.09
2013-10-19,70,49,33,43,35,30,96,63,25,30.22,29.99,15,4,15,0.00
2013-10-20,77,59,42,54,45,36,81,61,39,30.00,29.67,24,5,24,0.00
2013-10-21,66,56,40,50,42,34,86,63,34,30.11,29.77,28,7,28,0.00
2013-10-22,81,57,36,43,38,32,87,55,20,30.13,29.96,25,4,25,0.00
2013-10-23,86,63,40,44,37,32,85,47,15,30.06,29.91,22,5,27,0.00
2013-10-24,68,56,43,45,41,34,88,59,38,30.28,30.00,22,5,22,0.00
2013-10-25,69,54,37,51,42,32,84,66,46,30.37,30.11,14,3,14,0.00
2013-10-26,76,63,54,60,53,48,89,73,44,30.12,29.95,21,5,21,0.02
2013-10-27,73,58,42,51,41,33,78,57,26,30.10,29.89,15,3,15,0.00
2013-10-28,77,64,54,64,58,50,92,82,65,29.96,29.82,20,4,20,0.00
2013-10-29,82,74,67,67,65,62,86,73,58,29.89,29.76,26,10,26,0.00
2013-10-30,81,74,63,68,66,58,87,76,58,29.83,29.61,41,9,41,0.55
2013-10-31,70,61,52,59,46,38,88,60,31,29.79,29.54,35,8,35,0.08
2013-11-1,73,57,40,48,40,34,89,57,25,30.12,29.71,27,6,27,0.00
2013-11-2,69,53,38,40,34,31,75,52,25,30.31,30.11,10,2,10,0.00
2013-11-3,67,56,46,44,37,33,64,49,34,30.11,29.80,32,10,32,0.00
2013-11-4,76,62,48,56,49,41,87,64,43,29.92,29.81,23,5,23,0.00
2013-11-5,75,64,50,63,58,44,90,82,65,30.01,29.74,26,8,26,0.30
2013-11-6,58,48,37,44,36,30,80,67,39,30.37,30.01,26,6,26,0.00
2013-11-7,68,48,31,41,32,28,91,60,25,30.50,30.30,15,3,15,0.00
2013-11-8,67,54,41,41,34,25,73,50,22,30.31,29.98,29,9,29,0.00
2013-11-9,70,56,45,50,45,38,84,66,44,30.14,29.96,18,4,18,0.00
2013-11-10,62,54,49,52,50,46,92,84,70,30.27,30.13,13,3,13,0.00
2013-11-11,70,59,45,57,53,39,92,81,62,30.39,30.08,32,7,32,0.00
2013-11-12,45,37,22,39,20,14,78,53,29,30.76,30.38,28,10,28,0.00
2013-11-13,54,35,15,22,14,11,87,50,18,30.71,30.27,19,4,19,0.00
2013-11-14,56,46,35,40,29,20,64,53,43,30.27,29.88,25,6,25,0.00
2013-11-15,71,54,32,49,38,28,85,56,33,29.92,29.66,19,5,19,0.00
2013-11-16,85,72,62,56,51,45,72,50,25,29.66,29.41,42,12,42,0.00
2013-11-17,77,65,50,55,42,29,78,46,22,30.01,29.50,24,6,24,0.00
2013-11-18,66,54,42,33,27,17,63,39,16,30.21,30.01,15,3,15,0.00
2013-11-19,68,58,50,44,39,33,57,48,39,30.10,29.81,27,7,27,0.00
2013-11-20,77,65,56,59,52,41,78,64,47,29.82,29.67,26,8,26,0.00
2013-11-21,77,55,32,62,47,23,85,74,48,30.38,29.76,36,11,36,0.00
2013-11-22,32,30,28,28,24,19,92,78,65,30.60,30.37,32,12,32,0.00
2013-11-23,38,35,31,27,23,18,77,64,45,30.68,30.56,21,10,23,0.01
2013-11-24,34,29,26,26,24,23,89,83,65,30.68,30.31,15,5,17,0.02
2013-11-25,37,33,29,33,29,26,89,87,84,30.31,30.17,13,4,13,0.03
2013-11-26,48,38,29,30,28,23,85,69,46,30.44,30.24,25,7,25,0.00
2013-11-27,47,34,21,26,23,17,87,66,39,30.49,30.27,15,3,15,0.01
2013-11-28,59,43,31,35,29,26,85,62,32,30.36,30.24,16,4,16,0.00
2013-11-29,61,46,30,37,32,24,83,61,36,30.40,30.21,27,5,27,0.00
2013-11-30,69,52,40,47,41,35,85,69,43,30.22,30.02,15,4,15,0.00
2013-12-1,64,48,36,47,40,31,92,75,49,30.05,29.88,13,2,13,0.00
2013-12-2,71,47,29,44,35,26,92,67,27,29.88,29.57,12,2,12,0.00
2013-12-3,81,56,37,40,33,26,78,47,14,29.57,29.41,18,4,18,0.00
2013-12-4,50,43,32,34,29,18,78,59,45,30.04,29.43,25,8,25,0.00
2013-12-5,32,24,20,18,14,9,85,65,46,30.31,30.04,31,10,31,0.00
2013-12-6,25,17,5,17,11,0,89,78,63,30.64,30.28,20,7,20,0.00
2013-12-7,19,12,2,12,4,-3,80,72,65,30.69,30.31,19,4,19,0.00
2013-12-8,37,25,17,27,19,12,85,77,66,30.32,29.97,23,5,23,0.03
2013-12-9,26,23,9,22,16,4,92,77,67,30.49,30.16,20,6,20,0.00
2013-12-10,42,24,5,28,16,1,92,73,57,30.51,30.21,18,5,18,0.00
2013-12-11,39,29,19,28,22,15,88,76,63,30.63,30.23,27,6,27,0.00
2013-12-12,42,31,17,34,24,13,89,77,61,30.64,30.19,16,3,16,0.01
2013-12-13,58,46,39,44,38,33,87,75,58,30.20,29.66,26,7,26,0.01
2013-12-14,50,38,30,35,26,23,82,65,36,30.31,29.79,27,9,27,0.00
2013-12-15,63,42,24,36,28,20,87,62,29,30.30,30.13,18,4,18,0.00
2013-12-16,69,44,26,37,29,22,87,59,23,30.17,30.07,16,2,16,0.00
2013-12-17,69,45,28,37,30,24,84,61,25,30.29,30.15,11,2,11,0.00
2013-12-18,70,48,27,43,34,23,89,63,32,30.23,29.80,27,6,27,0.00
2013-12-19,71,59,52,51,47,43,79,66,42,29.80,29.55,27,10,27,0.00
2013-12-20,56,36,30,48,28,19,90,75,60,29.95,29.61,32,7,32,0.01
2013-12-21,33,32,30,31,30,26,92,91,86,29.86,29.59,0,0,0,0.05
2013-12-22,38,30,25,30,25,21,88,82,70,30.38,29.86,12,1,14,0.02
2013-12-23,48,32,24,34,26,20,90,81,58,30.57,30.36,20,4,20,0.01
2013-12-24,53,36,24,41,30,22,91,80,62,30.55,30.09,23,6,23,0.00
2013-12-25,50,37,26,36,30,22,91,76,51,30.44,30.15,22,6,22,0.00
2013-12-26,57,37,21,35,26,18,90,68,34,30.43,30.27,16,3,16,0.00
2013-12-27,60,40,23,37,27,19,88,63,27,30.40,30.26,16,3,16,0.00
2013-12-28,57,44,31,44,35,25,87,72,54,30.26,29.86,23,5,23,0.00
2013-12-29,44,32,22,40,24,15,92,72,59,30.34,29.85,34,10,34,0.00
2013-12-30,47,28,14,24,18,10,87,66,39,30.42,30.26,10,2,10,0.00
2013-12-31,57,38,18,32,25,14,88,64,35,30.42,30.04,23,6,23,0.00
2014-1-1,59,42,27,36,29,19,80,62,35,30.34,29.83,30,10,30,0.00
2014-1-2,45,31,22,24,19,15,77,63,40,30.54,30.34,24,5,24,0.00